When you browse on this site, cookies collect data to enhance your experience and personalize the content and advertising you see.
Visit our Privacy Policy to learn more. By continuing to use the site, you agree to this use of cookies and data.

Hourly Weather Nemirov

Today, 8 July, Wednesday

Time Temperature Precipitation Wind Pressure Humidity
00:00 +13°C° 0.7 mm 6 mps 735 mmHg 80%
01:00 +13°C° 0.7 mm 6 mps 735 mmHg 85%
02:00 +11°C° 0 mm 6 mps 735 mmHg 88%
03:00 +12°C° 0 mm 5 mps 735 mmHg 89%
04:00 +12°C° 0 mm 5 mps 736 mmHg 91%
05:00 +12°C° 0 mm 5 mps 736 mmHg 92%
06:00 +13°C° 0 mm 5 mps 736 mmHg 87%
07:00 +14°C° 0 mm 6 mps 736 mmHg 83%
08:00 +15°C° 0 mm 6 mps 737 mmHg 78%
09:00 +16°C° 0 mm 6 mps 737 mmHg 73%
10:00 +17°C° 0 mm 6 mps 737 mmHg 67%
11:00 +19°C° 0 mm 6 mps 737 mmHg 62%
12:00 +20°C° 0 mm 6 mps 738 mmHg 60%
13:00 +20°C° 0 mm 6 mps 738 mmHg 59%
14:00 +20°C° 0 mm 6 mps 738 mmHg 58%
15:00 +20°C° 0 mm 6 mps 738 mmHg 59%
16:00 +20°C° 0 mm 5 mps 738 mmHg 61%
17:00 +20°C° 0 mm 5 mps 738 mmHg 62%
18:00 +18°C° 0 mm 4 mps 738 mmHg 68%
19:00 +17°C° 0 mm 3 mps 738 mmHg 74%
20:00 +15°C° 0 mm 2 mps 738 mmHg 80%
21:00 +15°C° 0 mm 2 mps 738 mmHg 82%
22:00 +14°C° 0 mm 2 mps 739 mmHg 84%
23:00 +13°C° 0 mm 2 mps 739 mmHg 86%

Tomorrow, 9 July, Thursday

Time Temperature Precipitation Wind Pressure Humidity
00:00 +13°C° 0 mm 2 mps 739 mmHg 87%
01:00 +13°C° 0 mm 2 mps 739 mmHg 87%
02:00 +12°C° 0 mm 2 mps 739 mmHg 88%
03:00 +12°C° 0 mm 2 mps 739 mmHg 87%
04:00 +12°C° 0 mm 2 mps 739 mmHg 87%
05:00 +12°C° 0 mm 2 mps 739 mmHg 87%
06:00 +15°C° 0 mm 2 mps 739 mmHg 81%
07:00 +17°C° 0 mm 2 mps 739 mmHg 75%
08:00 +19°C° 0 mm 3 mps 740 mmHg 69%
09:00 +18°C° 0 mm 3 mps 740 mmHg 71%
10:00 +18°C° 0 mm 3 mps 740 mmHg 73%
11:00 +18°C° 0 mm 3 mps 740 mmHg 75%
12:00 +18°C° 0 mm 3 mps 740 mmHg 74%
13:00 +19°C° 0 mm 3 mps 740 mmHg 74%
14:00 +19°C° 0 mm 3 mps 740 mmHg 73%
15:00 +20°C° 0 mm 3 mps 740 mmHg 72%
16:00 +20°C° 0 mm 3 mps 740 mmHg 71%
17:00 +21°C° 0 mm 3 mps 740 mmHg 69%
18:00 +19°C° 0 mm 2 mps 740 mmHg 75%
19:00 +18°C° 0 mm 2 mps 740 mmHg 81%
20:00 +18°C° 0 mm 1 mps 740 mmHg 86%
21:00 +16°C° 0 mm 1 mps 740 mmHg 87%
22:00 +15°C° 0 mm 1 mps 741 mmHg 88%
23:00 +15°C° 0 mm 1 mps 741 mmHg 89%

Day after tomorrow, 10 July, Friday

Time Temperature Precipitation Wind Pressure Humidity
00:00 +13°C° 0 mm 0 mps 741 mmHg 90%
01:00 +13°C° 0 mm 0 mps 741 mmHg 90%
02:00 +13°C° 0 mm 0 mps 741 mmHg 90%
03:00 +13°C° 0 mm 0 mps 741 mmHg 90%
04:00 +14°C° 0 mm 1 mps 741 mmHg 91%
05:00 +14°C° 0 mm 1 mps 741 mmHg 91%
06:00 +16°C° 0 mm 1 mps 741 mmHg 86%
07:00 +18°C° 0 mm 2 mps 741 mmHg 81%
08:00 +20°C° 0 mm 2 mps 741 mmHg 76%
09:00 +21°C° 0 mm 2 mps 741 mmHg 71%
10:00 +23°C° 0 mm 2 mps 742 mmHg 66%
11:00 +25°C° 0 mm 2 mps 742 mmHg 62%
12:00 +25°C° 0 mm 3 mps 741 mmHg 60%
13:00 +26°C° 0 mm 3 mps 741 mmHg 59%
14:00 +27°C° 0 mm 3 mps 741 mmHg 57%
15:00 +27°C° 0 mm 3 mps 741 mmHg 58%
16:00 +27°C° 0 mm 2 mps 740 mmHg 59%
17:00 +27°C° 0 mm 2 mps 740 mmHg 60%
18:00 +25°C° 0 mm 2 mps 740 mmHg 66%
19:00 +23°C° 0 mm 2 mps 740 mmHg 72%
20:00 +21°C° 0 mm 2 mps 740 mmHg 78%
21:00 +20°C° 0 mm 3 mps 740 mmHg 80%
22:00 +19°C° 0 mm 3 mps 740 mmHg 83%
23:00 +19°C° 0 mm 3 mps 740 mmHg 85%

11 July, Saturday

Time Temperature Precipitation Wind Pressure Humidity
00:00 +18°C° 0 mm 3 mps 740 mmHg 86%
01:00 +18°C° 0 mm 3 mps 740 mmHg 86%
02:00 +18°C° 0 mm 3 mps 740 mmHg 86%
03:00 +18°C° 0 mm 3 mps 740 mmHg 86%
04:00 +17°C° 0 mm 3 mps 740 mmHg 87%
05:00 +17°C° 0 mm 3 mps 740 mmHg 87%
06:00 +19°C° 0 mm 3 mps 740 mmHg 82%
07:00 +21°C° 0 mm 3 mps 740 mmHg 77%
08:00 +23°C° 0 mm 4 mps 740 mmHg 73%
09:00 +25°C° 0 mm 4 mps 740 mmHg 69%
10:00 +26°C° 0 mm 4 mps 740 mmHg 64%
11:00 +27°C° 0 mm 5 mps 740 mmHg 60%
12:00 +28°C° 0 mm 5 mps 740 mmHg 59%
13:00 +28°C° 0 mm 4 mps 740 mmHg 57%
14:00 +29°C° 0 mm 4 mps 740 mmHg 56%
15:00 +28°C° 0 mm 4 mps 740 mmHg 58%
16:00 +28°C° 0 mm 4 mps 739 mmHg 60%
17:00 +28°C° 0 mm 4 mps 739 mmHg 62%
18:00 +26°C° 0 mm 4 mps 739 mmHg 67%
19:00 +24°C° 0 mm 3 mps 738 mmHg 72%
20:00 +22°C° 0 mm 3 mps 738 mmHg 77%
21:00 +21°C° 0 mm 3 mps 738 mmHg 78%
22:00 +20°C° 0 mm 3 mps 738 mmHg 79%
23:00 +19°C° 0 mm 3 mps 738 mmHg 79%

12 July, Sunday

Time Temperature Precipitation Wind Pressure Humidity
00:00 +19°C° 0 mm 3 mps 738 mmHg 77%
01:00 +18°C° 0 mm 3 mps 737 mmHg 74%
02:00 +18°C° 0 mm 3 mps 737 mmHg 71%
03:00 +17°C° 0 mm 3 mps 737 mmHg 73%
04:00 +17°C° 0 mm 3 mps 736 mmHg 75%
05:00 +17°C° 0 mm 3 mps 736 mmHg 77%
06:00 +19°C° 0 mm 3 mps 736 mmHg 73%
07:00 +21°C° 0 mm 3 mps 737 mmHg 70%
08:00 +22°C° 0 mm 3 mps 737 mmHg 67%
09:00 +25°C° 0 mm 3 mps 737 mmHg 64%
10:00 +26°C° 0 mm 3 mps 737 mmHg 61%
11:00 +27°C° 0 mm 4 mps 737 mmHg 59%
12:00 +26°C° 0.6 mm 5 mps 737 mmHg 66%
13:00 +24°C° 0.6 mm 6 mps 737 mmHg 72%
14:00 +22°C° 0.6 mm 7 mps 737 mmHg 79%
15:00 +21°C° 0.2 mm 7 mps 738 mmHg 80%
16:00 +18°C° 0.2 mm 7 mps 738 mmHg 80%
17:00 +16°C° 0.2 mm 7 mps 738 mmHg 81%
18:00 +15°C° 0 mm 7 mps 738 mmHg 82%
19:00 +14°C° 0 mm 7 mps 739 mmHg 82%
20:00 +13°C° 0 mm 6 mps 739 mmHg 83%
21:00 +13°C° 0 mm 6 mps 739 mmHg 82%
22:00 +13°C° 0 mm 6 mps 739 mmHg 82%
23:00 +12°C° 0 mm 5 mps 739 mmHg 82%

13 July, Monday

Time Temperature Precipitation Wind Pressure Humidity
00:00 +12°C° 0 mm 5 mps 739 mmHg 84%
01:00 +11°C° 0 mm 4 mps 739 mmHg 86%
02:00 +10°C° 0 mm 4 mps 739 mmHg 88%
03:00 +10°C° 0 mm 4 mps 739 mmHg 90%
04:00 +10°C° 0 mm 4 mps 739 mmHg 92%
05:00 +10°C° 0 mm 4 mps 739 mmHg 93%
06:00 +12°C° 0 mm 4 mps 739 mmHg 86%
07:00 +14°C° 0 mm 5 mps 739 mmHg 79%
08:00 +16°C° 0 mm 5 mps 739 mmHg 72%
09:00 +17°C° 0 mm 5 mps 739 mmHg 68%
10:00 +19°C° 0 mm 6 mps 739 mmHg 63%
11:00 +20°C° 0 mm 6 mps 740 mmHg 59%
12:00 +20°C° 0 mm 6 mps 739 mmHg 57%
13:00 +21°C° 0 mm 6 mps 739 mmHg 55%
14:00 +21°C° 0 mm 6 mps 739 mmHg 54%
15:00 +21°C° 0.1 mm 5 mps 739 mmHg 56%
16:00 +20°C° 0.1 mm 5 mps 739 mmHg 59%
17:00 +20°C° 0.1 mm 5 mps 739 mmHg 61%
18:00 +18°C° 0 mm 4 mps 739 mmHg 67%
19:00 +17°C° 0 mm 4 mps 739 mmHg 74%
20:00 +14°C° 0 mm 3 mps 739 mmHg 80%
21:00 +13°C° 0 mm 3 mps 739 mmHg 83%
22:00 +13°C° 0 mm 3 mps 739 mmHg 85%
23:00 +12°C° 0 mm 3 mps 739 mmHg 88%
Show more